NJE945E LGKR-LIML

Flight info

Callsign NJE945E
Flight time N/A
Altitude 41000
Route TIGRA L995 KAPPO/N0479F410 DCT URIPI DCT LOMED DCT RUXOL/N0454F180 Q920 KALIK
Aircraft C750/M-SBDE3FGHRWXY/S

Departure

Time 2026-04-28 16:25
Airport Corfu Ioannis Kapodistrias International Airport (LGKR)

Arrival

Time N/A
Airport Milano Linate Airport (LIML)
Time Latitude Longitude Altitude Speed Heading
2026-04-28 15:56 39.61165 19.91158 23 ft 0 kts 259°
2026-04-28 16:19 39.61163 19.91142 19 ft 4 kts 259°
2026-04-28 16:19 39.61145 19.91100 20 ft 6 kts 200°
2026-04-28 16:19 39.61090 19.91113 20 ft 10 kts 168°
2026-04-28 16:19 39.61003 19.91136 19 ft 15 kts 167°
2026-04-28 16:20 39.60888 19.91168 18 ft 17 kts 169°
2026-04-28 16:20 39.60773 19.91199 17 ft 17 kts 168°
2026-04-28 16:20 39.60674 19.91224 18 ft 13 kts 171°
2026-04-28 16:20 39.60610 19.91230 17 ft 8 kts 196°
2026-04-28 16:21 39.60569 19.91188 16 ft 7 kts 215°
2026-04-28 16:21 39.60493 19.91149 16 ft 17 kts 189°
2026-04-28 16:21 39.60346 19.91175 18 ft 26 kts 168°
2026-04-28 16:21 39.60171 19.91220 20 ft 25 kts 169°
2026-04-28 16:22 39.60007 19.91261 19 ft 24 kts 169°
2026-04-28 16:22 39.59853 19.91301 19 ft 22 kts 169°
2026-04-28 16:22 39.59701 19.91341 19 ft 24 kts 169°
2026-04-28 16:22 39.59525 19.91386 15 ft 26 kts 168°
2026-04-28 16:23 39.59353 19.91428 14 ft 23 kts 178°
2026-04-28 16:23 39.59252 19.91435 14 ft 5 kts 130°
2026-04-28 16:23 39.59254 19.91449 14 ft 1 kts 52°
2026-04-28 16:23 39.59274 19.91453 14 ft 3 kts 348°
2026-04-28 16:24 39.59285 19.91449 14 ft 0 kts 347°
2026-04-28 16:24 39.59305 19.91443 14 ft 13 kts 347°
2026-04-28 16:24 39.59760 19.91324 18 ft 123 kts 348°
2026-04-28 16:24 39.60763 19.91082 365 ft 150 kts 348°
2026-04-28 16:25 39.61793 19.90860 1109 ft 153 kts 349°
2026-04-28 16:25 39.62837 19.90596 1839 ft 158 kts 348°
2026-04-28 16:25 39.63932 19.90302 2592 ft 164 kts 346°
2026-04-28 16:25 39.65003 19.89709 3251 ft 175 kts 321°
2026-04-28 16:26 39.65761 19.88464 4035 ft 180 kts 296°
2026-04-28 16:26 39.66015 19.86855 4801 ft 185 kts 268°
2026-04-28 16:26 39.65756 19.85193 5504 ft 194 kts 254°
2026-04-28 16:26 39.65309 19.83498 6180 ft 202 kts 249°
2026-04-28 16:27 39.64921 19.81723 6848 ft 213 kts 266°
2026-04-28 16:27 39.65242 19.79803 7593 ft 216 kts 292°
2026-04-28 16:27 39.66632 19.76332 9250 ft 231 kts 300°
2026-04-28 16:28 39.67503 19.74462 9712 ft 248 kts 301°
2026-04-28 16:28 39.68425 19.72427 9865 ft 278 kts 300°
2026-04-28 16:28 39.69404 19.70101 9964 ft 313 kts 298°
2026-04-28 16:28 39.70472 19.67507 10434 ft 327 kts 297°
2026-04-28 16:29 39.72554 19.61928 11266 ft 359 kts 295°
2026-04-28 16:29 39.74917 19.56250 12729 ft 365 kts 300°
2026-04-28 16:30 39.76176 19.53406 13684 ft 362 kts 300°
2026-04-28 16:30 39.77359 19.50537 14595 ft 354 kts 296°
2026-04-28 16:30 39.78568 19.47714 15173 ft 361 kts 305°
2026-04-28 16:30 39.80134 19.45169 15873 ft 362 kts 309°
2026-04-28 16:31 39.81664 19.42533 16419 ft 369 kts 306°
2026-04-28 16:31 39.83168 19.39774 16999 ft 374 kts 305°
2026-04-28 16:31 39.84669 19.37041 17879 ft 373 kts 306°
2026-04-28 16:31 39.86232 19.34298 18408 ft 382 kts 307°
2026-04-28 16:32 39.87824 19.31482 18925 ft 386 kts 306°
2026-04-28 16:32 39.91005 19.25929 20569 ft 384 kts 307°
2026-04-28 16:32 39.92600 19.23198 21347 ft 385 kts 307°
2026-04-28 16:33 39.94262 19.20381 21635 ft 398 kts 307°
2026-04-28 16:33 39.95377 19.18427 22131 ft 398 kts 306°
2026-04-28 16:33 39.97567 19.14489 22952 ft 404 kts 306°
2026-04-28 16:33 39.99202 19.11516 23692 ft 405 kts 305°
2026-04-28 16:34 40.00775 19.08525 24247 ft 407 kts 305°
2026-04-28 16:34 40.02463 19.05548 24715 ft 412 kts 307°
2026-04-28 16:34 40.04249 19.02583 25162 ft 417 kts 309°
2026-04-28 16:34 40.06067 18.99615 25674 ft 420 kts 307°
2026-04-28 16:35 40.07777 18.96501 26217 ft 423 kts 304°
2026-04-28 16:35 40.09407 18.93286 26735 ft 426 kts 304°
2026-04-28 16:35 40.11139 18.90122 27224 ft 430 kts 307°
2026-04-28 16:35 40.12980 18.87025 27737 ft 433 kts 308°
2026-04-28 16:36 40.14797 18.83861 28244 ft 437 kts 306°
2026-04-28 16:36 40.16564 18.80609 28765 ft 441 kts 306°
2026-04-28 16:36 40.18361 18.77342 29262 ft 444 kts 307°
2026-04-28 16:36 40.20213 18.74084 29733 ft 448 kts 307°
2026-04-28 16:37 40.22072 18.70800 30209 ft 452 kts 307°
2026-04-28 16:37 40.23922 18.67459 30635 ft 455 kts 306°
2026-04-28 16:37 40.25783 18.64091 31144 ft 455 kts 306°
2026-04-28 16:38 40.29491 18.57462 32498 ft 449 kts 306°
2026-04-28 16:38 40.31330 18.54152 33144 ft 447 kts 306°
2026-04-28 16:38 40.33151 18.50858 33804 ft 445 kts 306°
2026-04-28 16:38 40.34965 18.47587 34406 ft 444 kts 306°
2026-04-28 16:39 40.36775 18.44326 35018 ft 441 kts 306°
2026-04-28 16:39 40.38573 18.41089 35646 ft 438 kts 306°
2026-04-28 16:39 40.40363 18.37876 36282 ft 434 kts 306°
2026-04-28 16:39 40.42138 18.34684 36923 ft 431 kts 305°
2026-04-28 16:40 40.43898 18.31509 37566 ft 429 kts 305°
2026-04-28 16:40 40.45645 18.28355 38212 ft 426 kts 305°
2026-04-28 16:40 40.47357 18.25262 38819 ft 423 kts 305°
2026-04-28 16:40 40.49078 18.22140 39297 ft 421 kts 304°
2026-04-28 16:41 40.50792 18.19024 39747 ft 420 kts 304°
2026-04-28 16:41 40.52503 18.15916 40203 ft 419 kts 304°
2026-04-28 16:41 40.54205 18.12822 40695 ft 417 kts 304°
2026-04-28 16:41 40.55879 18.09775 41033 ft 411 kts 304°
2026-04-28 16:42 40.57576 18.06680 41012 ft 422 kts 304°
2026-04-28 16:42 40.61080 18.00261 41022 ft 439 kts 303°
2026-04-28 16:43 40.64293 17.93421 41031 ft 438 kts 301°
2026-04-28 16:43 40.67501 17.86603 41029 ft 438 kts 301°
2026-04-28 16:44 40.70691 17.79761 41054 ft 438 kts 301°
2026-04-28 16:44 40.73887 17.72916 41046 ft 438 kts 301°
2026-04-28 16:45 40.77079 17.66052 41046 ft 439 kts 301°
2026-04-28 16:45 40.80269 17.59184 41046 ft 439 kts 301°
2026-04-28 16:46 40.83452 17.52310 41046 ft 439 kts 301°
2026-04-28 16:46 40.86612 17.45474 41051 ft 439 kts 301°
2026-04-28 16:47 40.89801 17.38560 41049 ft 438 kts 300°
2026-04-28 16:47 40.92944 17.31727 41049 ft 438 kts 300°
2026-04-28 16:48 40.96104 17.24843 41049 ft 438 kts 300°
2026-04-28 16:48 40.99261 17.17952 41047 ft 438 kts 300°
2026-04-28 16:49 41.02412 17.11057 41047 ft 438 kts 300°
2026-04-28 16:49 41.05564 17.04145 41038 ft 438 kts 300°
2026-04-28 16:50 41.08708 16.97232 41038 ft 439 kts 300°
2026-04-28 16:50 41.11854 16.90304 41038 ft 438 kts 300°
2026-04-28 16:51 41.14993 16.83371 41014 ft 438 kts 300°
2026-04-28 16:51 41.18128 16.76433 41026 ft 438 kts 300°
2026-04-28 16:52 41.21253 16.69502 41019 ft 437 kts 300°
2026-04-28 16:52 41.24374 16.62561 41025 ft 438 kts 300°
2026-04-28 16:53 41.27493 16.55611 41030 ft 438 kts 300°
2026-04-28 16:53 41.30604 16.48664 41032 ft 438 kts 300°
2026-04-28 16:54 41.33717 16.41693 41038 ft 438 kts 300°
2026-04-28 16:54 41.36799 16.34779 41034 ft 438 kts 300°
2026-04-28 16:55 41.39905 16.27791 41035 ft 439 kts 300°
2026-04-28 16:55 41.43012 16.20792 41035 ft 439 kts 300°
2026-04-28 16:56 41.46110 16.13789 41031 ft 438 kts 299°
2026-04-28 16:56 41.49204 16.06782 41038 ft 438 kts 300°
2026-04-28 16:57 41.52287 15.99783 41036 ft 437 kts 299°
2026-04-28 16:57 41.55369 15.92769 41017 ft 439 kts 299°
2026-04-28 16:58 41.58457 15.85731 41016 ft 439 kts 299°
2026-04-28 16:58 41.61535 15.78691 41016 ft 439 kts 299°
2026-04-28 16:59 41.64610 15.71646 41015 ft 439 kts 299°
2026-04-28 16:59 41.67681 15.64593 41016 ft 439 kts 299°
2026-04-28 17:00 41.70754 15.57516 41014 ft 441 kts 299°
2026-04-28 17:00 41.73826 15.50432 41014 ft 439 kts 299°
2026-04-28 17:01 41.76866 15.43397 41015 ft 439 kts 299°
2026-04-28 17:01 41.79923 15.36308 41012 ft 440 kts 299°
2026-04-28 17:02 41.82981 15.29202 41010 ft 440 kts 298°
2026-04-28 17:02 41.86036 15.22082 41008 ft 441 kts 298°
2026-04-28 17:03 41.91229 15.11889 41016 ft 442 kts 304°
2026-04-28 17:03 41.94859 15.05227 41023 ft 442 kts 304°
2026-04-28 17:04 41.99718 14.96389 41025 ft 442 kts 304°
2026-04-28 17:05 42.05178 14.86393 41033 ft 442 kts 304°
2026-04-28 17:06 42.10627 14.76382 41023 ft 442 kts 304°
2026-04-28 17:06 42.16069 14.66358 41024 ft 442 kts 304°
2026-04-28 17:07 42.19692 14.59665 41024 ft 442 kts 304°
2026-04-28 17:07 42.23310 14.52967 41027 ft 442 kts 304°
2026-04-28 17:08 42.26925 14.46258 41028 ft 442 kts 304°
2026-04-28 17:08 42.30537 14.39541 41027 ft 442 kts 304°
2026-04-28 17:09 42.34145 14.32816 41024 ft 442 kts 304°
2026-04-28 17:09 42.37741 14.26098 41020 ft 441 kts 304°
2026-04-28 17:10 42.41316 14.19403 41021 ft 442 kts 304°
2026-04-28 17:10 42.44913 14.12655 41014 ft 442 kts 304°
2026-04-28 17:11 42.48503 14.05903 41032 ft 442 kts 304°
2026-04-28 17:11 42.52090 13.99140 41033 ft 442 kts 304°
2026-04-28 17:12 42.55675 13.92368 41035 ft 442 kts 304°
2026-04-28 17:12 42.59251 13.85597 41037 ft 442 kts 304°
2026-04-28 17:13 42.62836 13.78794 41035 ft 443 kts 304°
2026-04-28 17:13 42.66411 13.71993 41045 ft 443 kts 304°
2026-04-28 17:14 42.69990 13.65169 41041 ft 443 kts 304°
2026-04-28 17:14 42.73567 13.58335 41050 ft 444 kts 304°
2026-04-28 17:15 42.77141 13.51492 41046 ft 443 kts 304°
2026-04-28 17:15 42.80700 13.44659 41040 ft 442 kts 304°
2026-04-28 17:16 42.84257 13.37814 41037 ft 442 kts 304°
2026-04-28 17:16 42.87803 13.30976 41046 ft 442 kts 304°
2026-04-28 17:17 42.91348 13.24122 41047 ft 442 kts 304°
2026-04-28 17:17 42.94896 13.17249 41043 ft 443 kts 304°
2026-04-28 17:18 42.98440 13.10370 41042 ft 443 kts 304°
2026-04-28 17:18 43.01956 13.03524 41033 ft 443 kts 303°
2026-04-28 17:19 43.05490 12.96639 41036 ft 442 kts 303°
2026-04-28 17:19 43.09027 12.89746 41027 ft 443 kts 304°
2026-04-28 17:20 43.11995 12.83953 41023 ft 443 kts 304°
2026-04-28 17:20 43.16101 12.75935 41015 ft 443 kts 304°
2026-04-28 17:21 43.19644 12.69004 41018 ft 444 kts 304°
2026-04-28 17:22 43.24956 12.58598 41014 ft 444 kts 303°
2026-04-28 17:22 43.28495 12.51656 41017 ft 444 kts 303°
2026-04-28 17:23 43.33794 12.41239 41011 ft 444 kts 303°
2026-04-28 17:23 43.37330 12.34278 41021 ft 444 kts 303°
2026-04-28 17:24 43.40869 12.27300 41024 ft 444 kts 303°
2026-04-28 17:24 43.44397 12.20335 41022 ft 444 kts 303°
2026-04-28 17:25 43.49690 12.09867 41029 ft 444 kts 303°
2026-04-28 17:26 43.53215 12.02883 41024 ft 444 kts 303°
2026-04-28 17:26 43.56719 11.95929 41026 ft 445 kts 303°
2026-04-28 17:27 43.60247 11.88916 41027 ft 445 kts 303°
2026-04-28 17:27 43.63770 11.81905 41017 ft 444 kts 303°
2026-04-28 17:28 43.67295 11.74885 41018 ft 445 kts 303°
2026-04-28 17:28 43.72574 11.64353 41012 ft 445 kts 303°
2026-04-28 17:29 43.76099 11.57306 41014 ft 445 kts 303°
2026-04-28 17:30 43.81373 11.46754 41016 ft 444 kts 303°
2026-04-28 17:30 43.86541 11.36113 41007 ft 443 kts 298°
2026-04-28 17:31 43.90684 11.24670 40987 ft 444 kts 299°
2026-04-28 17:32 43.95374 11.13617 40827 ft 439 kts 297°
2026-04-28 17:32 43.96804 11.09965 40253 ft 433 kts 298°
2026-04-28 17:32 43.98286 11.06372 39700 ft 425 kts 300°
2026-04-28 17:33 43.99760 11.02849 39155 ft 419 kts 299°
2026-04-28 17:33 44.01183 10.99347 38633 ft 414 kts 298°
2026-04-28 17:33 44.02575 10.95870 38071 ft 410 kts 298°
2026-04-28 17:33 44.03500 10.93583 37727 ft 410 kts 299°
2026-04-28 17:34 44.05396 10.88939 37020 ft 417 kts 299°
2026-04-28 17:34 44.06828 10.85409 36496 ft 421 kts 298°
2026-04-28 17:34 44.08262 10.81852 35942 ft 422 kts 298°
2026-04-28 17:34 44.09702 10.78282 35379 ft 424 kts 298°
2026-04-28 17:35 44.11150 10.74703 34853 ft 425 kts 298°
2026-04-28 17:35 44.12598 10.71112 34305 ft 426 kts 298°
2026-04-28 17:35 44.14043 10.67520 33768 ft 426 kts 298°
2026-04-28 17:35 44.15492 10.63912 33205 ft 429 kts 298°
2026-04-28 17:36 44.16954 10.60273 32634 ft 432 kts 298°
2026-04-28 17:36 44.18422 10.56612 32057 ft 435 kts 298°
2026-04-28 17:36 44.19902 10.52916 31477 ft 438 kts 298°
2026-04-28 17:36 44.21391 10.49192 30895 ft 442 kts 298°
2026-04-28 17:37 44.22896 10.45426 30318 ft 444 kts 298°
2026-04-28 17:37 44.24389 10.41683 29659 ft 439 kts 298°
2026-04-28 17:37 44.25844 10.38031 29112 ft 435 kts 298°
2026-04-28 17:37 44.27305 10.34361 28533 ft 431 kts 298°
2026-04-28 17:38 44.28751 10.30720 27945 ft 427 kts 297°
2026-04-28 17:38 44.30184 10.27109 27374 ft 424 kts 297°
2026-04-28 17:38 44.31604 10.23526 26818 ft 420 kts 297°
2026-04-28 17:38 44.33010 10.19973 26268 ft 416 kts 297°
2026-04-28 17:39 44.34404 10.16447 25721 ft 415 kts 297°
2026-04-28 17:39 44.35792 10.12933 25148 ft 412 kts 297°
2026-04-28 17:39 44.38535 10.05969 24078 ft 407 kts 297°
2026-04-28 17:40 44.39896 10.02511 23525 ft 404 kts 297°
2026-04-28 17:40 44.41243 9.99081 22968 ft 400 kts 297°
2026-04-28 17:40 44.42576 9.95687 22407 ft 396 kts 297°
2026-04-28 17:40 44.43894 9.92324 21891 ft 393 kts 297°
2026-04-28 17:41 44.45200 9.88985 21371 ft 389 kts 296°
2026-04-28 17:41 44.46498 9.85677 20868 ft 386 kts 297°
2026-04-28 17:41 44.48057 9.82620 20340 ft 386 kts 306°
2026-04-28 17:41 44.49758 9.79724 19841 ft 384 kts 307°
2026-04-28 17:42 44.51435 9.76831 19336 ft 380 kts 306°
2026-04-28 17:42 44.52524 9.74913 19003 ft 378 kts 306°
2026-04-28 17:42 44.54704 9.71074 18340 ft 375 kts 306°
2026-04-28 17:42 44.56332 9.68241 17813 ft 371 kts 306°
2026-04-28 17:43 44.57946 9.65425 17324 ft 370 kts 306°
2026-04-28 17:43 44.59553 9.62602 16834 ft 370 kts 306°
2026-04-28 17:43 44.61133 9.59828 16353 ft 367 kts 306°
2026-04-28 17:43 44.62747 9.57000 15866 ft 365 kts 306°
2026-04-28 17:44 44.64327 9.54226 15391 ft 363 kts 306°
2026-04-28 17:44 44.65906 9.51445 14909 ft 362 kts 307°
2026-04-28 17:44 44.67472 9.48689 14437 ft 361 kts 307°
2026-04-28 17:44 44.69039 9.45928 13960 ft 361 kts 306°
2026-04-28 17:45 44.70601 9.43173 13455 ft 359 kts 306°
2026-04-28 17:45 44.72156 9.40428 12987 ft 358 kts 306°
2026-04-28 17:45 44.73739 9.37732 12502 ft 358 kts 311°
2026-04-28 17:45 44.75779 9.35723 12013 ft 360 kts 332°
2026-04-28 17:46 44.78197 9.34779 11549 ft 362 kts 352°
2026-04-28 17:46 44.80697 9.34496 11110 ft 354 kts 355°
2026-04-28 17:46 44.83074 9.34289 10644 ft 331 kts 355°
2026-04-28 17:46 44.85275 9.34067 10225 ft 313 kts 354°
2026-04-28 17:47 44.87393 9.33830 9815 ft 300 kts 354°
2026-04-28 17:47 44.89447 9.33610 9404 ft 293 kts 355°
2026-04-28 17:47 44.91504 9.33399 9011 ft 292 kts 355°
2026-04-28 17:47 44.92840 9.33261 8759 ft 291 kts 355°
2026-04-28 17:48 44.95547 9.32973 8244 ft 291 kts 355°
2026-04-28 17:48 44.97527 9.32762 7871 ft 289 kts 355°
2026-04-28 17:48 44.99526 9.32549 7489 ft 287 kts 355°
2026-04-28 17:48 45.01493 9.32341 7101 ft 282 kts 355°
2026-04-28 17:49 45.03464 9.32132 6735 ft 285 kts 355°
2026-04-28 17:49 45.05432 9.31922 6357 ft 280 kts 355°
2026-04-28 17:49 45.07309 9.31723 5976 ft 259 kts 356°
2026-04-28 17:49 45.09042 9.31537 5635 ft 243 kts 356°
2026-04-28 17:50 45.10699 9.31359 5318 ft 236 kts 356°
2026-04-28 17:50 45.12330 9.31184 5005 ft 235 kts 356°
2026-04-28 17:50 45.13956 9.31010 4698 ft 234 kts 356°
2026-04-28 17:50 45.15527 9.30841 4391 ft 218 kts 356°
2026-04-28 17:51 45.17006 9.30681 4107 ft 210 kts 356°
2026-04-28 17:51 45.18460 9.30525 3831 ft 209 kts 356°
2026-04-28 17:51 45.19903 9.30367 3681 ft 207 kts 356°
2026-04-28 17:51 45.21342 9.30211 3558 ft 209 kts 356°
2026-04-28 17:52 45.22801 9.30054 3436 ft 211 kts 356°
2026-04-28 17:52 45.24272 9.29896 3318 ft 212 kts 356°
2026-04-28 17:52 45.27023 9.29599 3012 ft 171 kts 356°
2026-04-28 17:53 45.28139 9.29478 2972 ft 157 kts 356°
2026-04-28 17:53 45.28880 9.29398 2998 ft 164 kts 356°
2026-04-28 17:53 45.30021 9.29275 2950 ft 167 kts 356°
2026-04-28 17:53 45.31188 9.29149 2738 ft 167 kts 356°
2026-04-28 17:54 45.32337 9.29024 2506 ft 158 kts 356°
2026-04-28 17:54 45.33355 9.28914 2310 ft 137 kts 356°
2026-04-28 17:54 45.34277 9.28815 2132 ft 130 kts 356°
2026-04-28 17:54 45.35178 9.28718 1968 ft 131 kts 356°
2026-04-28 17:55 45.36099 9.28619 1801 ft 134 kts 356°
2026-04-28 17:55 45.37035 9.28514 1625 ft 136 kts 356°
2026-04-28 17:55 45.38032 9.28407 1431 ft 137 kts 356°
2026-04-28 17:55 45.38941 9.28309 1259 ft 138 kts 356°
2026-04-28 17:56 45.39897 9.28206 1083 ft 138 kts 356°
2026-04-28 17:56 45.40853 9.28103 907 ft 138 kts 355°
2026-04-28 17:56 45.41812 9.28000 725 ft 138 kts 355°
2026-04-28 17:56 45.42778 9.27896 547 ft 140 kts 355°
2026-04-28 17:57 45.43750 9.27786 376 ft 137 kts 355°
2026-04-28 17:57 45.44606 9.27694 359 ft 110 kts 355°